Hourly Data Report for October 30, 2018

VICTORIA UNIVERSITY CS
BRITISH COLUMBIA
Current Station Operator: ECCC - MSC

48°27'25.200" N
123°18'16.600" W
60.10 m
1018598
71783
WYJ

Download Data

Hourly Data (October 2018)
Hourly Data Report for October 30, 2018
TIME
LST
Temp Definition
°C
Dew Point Definition
°C
Rel Hum Definition
%
Precip. Amount Definition
mm

Wind Dir Definition
10's deg

Wind Spd Definition
km/h
Visibility Definition
km
Stn Press Definition
kPa
Hmdx Definition


Wind Chill Definition


Weather Definition


00:00 8.3 8.0 98 0.3 32 3   101.77     LegendNANA
01:00 8.1 7.8 98 0.2   0   101.78     LegendNANA
02:00 8.6 8.3 98 0.0 16 5   101.83     LegendNANA
03:00 8.7 8.3 97 0.5 15 4   101.83     LegendNANA
04:00 8.7 8.2 97 1.0 21 3   101.83     LegendNANA
05:00 8.6 8.2 97 0.6 24 3   101.83     LegendNANA
06:00 8.3 7.9 97 0.0 15 3   101.84     LegendNANA
07:00 8.1 7.7 98 0.4   0   101.89     LegendNANA
08:00 8.5 8.2 98 0.0 17 3   101.92     LegendNANA
09:00 8.9 8.3 96 0.2 16 4   101.94     LegendNANA
10:00 9.8 7.7 87 0.0 16 6   101.96     LegendNANA
11:00 10.1 8.3 89 0.0 11 2   101.95     LegendNANA
12:00 11.3 8.9 85 0.0 12 2   101.91     LegendNANA
13:00 11.6 8.7 82 0.0 14 3   101.85     LegendNANA
14:00 11.0 8.2 83 0.0 13 3   101.77     LegendNANA
15:00 10.5 8.1 85 0.0 11 1   101.74     LegendNANA
16:00 10.0 7.9 87 0.0 10 1   101.67     LegendNANA
17:00 9.5 8.0 90 0.0 9 2   101.53     LegendNANA
18:00 9.6 8.5 93 0.0 16 1   101.44     LegendNANA
19:00 9.6 8.9 95 0.6 10 2   101.36     LegendNANA
20:00 9.7 9.1 97 1.0 10 2   101.27     LegendNANA
21:00 9.6 9.1 97 0.4   0   101.19     LegendNANA
22:00 9.7 9.3 97 0.2 0 1   101.06     LegendNANA
23:00 9.4 8.7 95 0.0 12 1   100.95     LegendNANA

Notes on Data Quality.

Legend

  • E = Estimated
  • M = Missing
  • NA = Not Available*
  • [empty] = Indicates an unobserved value
Date modified: